"Pseudo-MPEC" for P22pata

Created 2026 Aug 13 17:35:31 UT using Find_Orb

Click here for an explanation of pseudo-MPECs

 
 Astrometry: 
     P22pata 0C2026 07 24.57453423 14 51.474+07 28 52.83   ~8BK5 22.23wXNEOCPF51
     P22pata 0C2026 07 24.58631723 14 52.055+07 29 03.30   ~8BK5 22.02wXNEOCPF51
     P22pata 0C2026 07 24.59838023 14 52.633+07 29 13.92   ~8BK5 22.01wXNEOCPF51
     P22pata 0C2026 07 26.51234423 16 33.342+07 57 05.90   ~8BK5 22.13wXNEOCPF52
     P22pata 0C2026 07 26.52197723 16 33.768+07 57 14.01   ~8BK5 22.40wXNEOCPF52
     P22pata 0C2026 07 26.53180623 16 34.219+07 57 22.50   ~8BK5 22.30wXNEOCPF52
     P22pata 0C2026 07 26.57190623 16 36.011+07 57 57.01   ~8BK5 21.77GVNEOCPF51
     P22pata 0C2026 07 27.49732923 17 22.194+08 11 05.78   ~8BK5 21.83GVNEOCPF52
     P22pata*0C2026 08 11.41659623 25 30.926+11 08 10.83   ~8BBZ 21.45wXNEOCPF52
     P22pata 0C2026 08 11.42737723 25 31.059+11 08 17.20   ~8BBZ 21.90wXNEOCPF52
     P22pata 0C2026 08 11.43815323 25 31.161+11 08 23.02   ~8BBZ 21.55wXNEOCPF52
     P22pata 0C2026 08 11.55712223 25 32.349+11 09 29.09   ~8BKZ 21.35GVNEOCPF52
     P22pata 0C2026 08 11.55775523 25 32.363+11 09 29.49   ~8BKZ 21.42GVNEOCPF52
     P22pata KC2026 08 12.26674923 25 43.65 +11 15 49.0    ~8C75 21.1 GVNEOCPH21
     P22pata KC2026 08 12.27513623 25 43.73 +11 15 53.8    ~8C75 21.2 GVNEOCPH21
     P22pata KC2026 08 12.27811823 25 43.77 +11 15 55.6    ~8C75 21.6 GVNEOCPH21

Station data:
(F51) Pan-STARRS 1, Haleakala  (N20.707234 W156.255910)  US/Hawaii.
   Observers J. Herman, T. Lowe, P. Minguez, A. Schultz, I. Smith. Measurers
   K. Chambers, T. de Boer, J. Fairlamb, H. Gao, M. Huber, C.-C. Lin, E.
   Magnier, Y. Ramanjooloo, R. Wainscoat, R. Weryk. 1.8-m Ritchey-Chrétien +
   CCD.
(F52) Pan-STARRS 2, Haleakala  (N20.707382 W156.255910)  US/Hawaii.
   Observers J. Herman, T. Lowe, P. Minguez, A. Schultz, I. Smith. Measurers
   K. Chambers, T. de Boer, J. Fairlamb, H. Gao, M. Huber, C.-C. Lin, E.
   Magnier, Y. Ramanjooloo, R. Wainscoat, R. Weryk. 1.8-m Ritchey-Chrétien +
   CCD.
(H21) Astronomical Research Observatory, Westfield  (N39.483054 W87.968270)
   US/Illinois.  Observer R. Holmes. Measurers S. Foglia, L. Buzzi, T.
   Linder, R. Holmes. 0.40-m f/5.32 astrograph + CCD.

Orbital elements:  P22pata
   Perihelion 2026 Aug 10.696766 +/- 0.127 TT = 16:43:20.5 (JD 2461263.196766)
Epoch 2026 Aug 12.0 TT = JDT 2461264.5   Earth MOID: 0.4852      AutoNEOCP
M   0.404819285 +/- 0.038           (J2000 ecliptic)
n   0.310626627 +/- 0.000755        Peri.   78.148263 +/- 0.12
a   2.159286460 +/- 0.0035          Node   252.956393 +/- 0.053
e   0.31253604 +/- 0.000886         Incl.    5.190842 +/- 0.0042
P   3.17297                H 20.82  G  0.15   U  7.9
q 1.484431607 +/- 0.000498    Q 2.834141312 +/- 0.00651
From 16 observations 2026 July 24-Aug. 12; mean residual 0".11
Residuals in arcseconds: 
260724 F51  .03-  .01-    260726 F51  .01-  .00     260811 F52  .03+  .02-    
260724 F51  .06+  .02+    260727 F52  .05-  .10-    260812 H21  .10+  .30-    
260724 F51  .10-  .03-    260811 F52  .07-  .05-    260812 H21  .11+  .03-    
260726 F52  .09+  .17+    260811 F52  .12+  .22+    260812 H21  .29+  .17+    
260726 F52  .04-  .03-    260811 F52  .11-  .04-    
260726 F52  .09+  .02-    260811 F52  .08-  .07-    

Ephemerides (geocentric):
Date (UTC) HH   RA             Dec           delta  r     elong  mag " sig PA
---- --------  ------------   ------------  ------ ------ -----  --- --------
2026 08 13 18  23 26 02.171   +11 28 41.59  .55080 1.4846 141.6 21.5 .224  94
2026 08 13 19  23 26 02.631   +11 29 02.27  .55067 1.4846 141.6 21.5 .228  94
2026 08 13 20  23 26 03.087   +11 29 22.91  .55055 1.4846 141.6 21.5 .233  94
2026 08 13 21  23 26 03.539   +11 29 43.51  .55042 1.4846 141.7 21.5 .238  94
2026 08 13 22  23 26 03.988   +11 30 04.06  .55029 1.4846 141.7 21.5 .243  94
2026 08 13 23  23 26 04.432   +11 30 24.57  .55016 1.4847 141.7 21.5 .248  94
2026 08 14 00  23 26 04.873   +11 30 45.03  .55003 1.4847 141.8 21.5 .253  94
2026 08 14 01  23 26 05.310   +11 31 05.45  .54991 1.4847 141.8 21.5 .258  94
2026 08 14 02  23 26 05.743   +11 31 25.82  .54978 1.4847 141.8 21.5 .263  93
2026 08 14 03  23 26 06.172   +11 31 46.15  .54965 1.4847 141.9 21.5 .268  93
2026 08 14 04  23 26 06.598   +11 32 06.44  .54952 1.4847 141.9 21.5 .273  93
2026 08 14 05  23 26 07.020   +11 32 26.68  .54940 1.4847 141.9 21.5 .278  93
2026 08 14 06  23 26 07.438   +11 32 46.87  .54927 1.4847 142.0 21.5 .283  93
2026 08 14 07  23 26 07.852   +11 33 07.03  .54914 1.4847 142.0 21.5 .288  93
2026 08 14 08  23 26 08.262   +11 33 27.13  .54902 1.4847 142.0 21.5 .293  93
2026 08 14 09  23 26 08.669   +11 33 47.20  .54889 1.4847 142.1 21.5 .298  93
2026 08 14 10  23 26 09.072   +11 34 07.21  .54877 1.4847 142.1 21.5 .303  93
2026 08 14 11  23 26 09.471   +11 34 27.19  .54864 1.4847 142.1 21.5 .309  93
2026 08 14 12  23 26 09.867   +11 34 47.12  .54852 1.4847 142.1 21.5 .314  93
2026 08 14 13  23 26 10.258   +11 35 07.00  .54839 1.4847 142.2 21.5 .319  93
2026 08 14 14  23 26 10.646   +11 35 26.84  .54827 1.4847 142.2 21.5 .324  93
2026 08 14 15  23 26 11.030   +11 35 46.64  .54814 1.4848 142.2 21.5 .330  92
2026 08 14 16  23 26 11.411   +11 36 06.39  .54802 1.4848 142.3 21.5 .335  92
2026 08 14 17  23 26 11.787   +11 36 26.10  .54789 1.4848 142.3 21.5 .340  92
2026 08 14 18  23 26 12.160   +11 36 45.76  .54777 1.4848 142.3 21.5 .346  92
2026 08 14 19  23 26 12.529   +11 37 05.38  .54764 1.4848 142.4 21.5 .351  92
2026 08 14 20  23 26 12.895   +11 37 24.95  .54752 1.4848 142.4 21.5 .357  92
2026 08 14 21  23 26 13.256   +11 37 44.47  .54740 1.4848 142.4 21.5 .362  92
2026 08 14 22  23 26 13.614   +11 38 03.96  .54727 1.4848 142.5 21.5 .368  92
2026 08 14 23  23 26 13.968   +11 38 23.39  .54715 1.4848 142.5 21.5 .373  92
2026 08 15 00  23 26 14.319   +11 38 42.79  .54703 1.4848 142.5 21.5 .379  92
2026 08 15 01  23 26 14.666   +11 39 02.13  .54690 1.4848 142.6 21.5 .385  92
2026 08 15 02  23 26 15.009   +11 39 21.44  .54678 1.4848 142.6 21.5 .390  92
2026 08 15 03  23 26 15.348   +11 39 40.69  .54666 1.4848 142.6 21.5 .396  92
2026 08 15 04  23 26 15.683   +11 39 59.91  .54653 1.4849 142.7 21.5 .402  92
2026 08 15 05  23 26 16.015   +11 40 19.07  .54641 1.4849 142.7 21.5 .407  92
2026 08 15 06  23 26 16.343   +11 40 38.19  .54629 1.4849 142.7 21.5 .413  91
2026 08 15 07  23 26 16.667   +11 40 57.27  .54617 1.4849 142.8 21.5 .419  91
2026 08 15 08  23 26 16.988   +11 41 16.30  .54605 1.4849 142.8 21.5 .425  91
2026 08 15 09  23 26 17.305   +11 41 35.29  .54593 1.4849 142.8 21.5 .431  91
2026 08 15 10  23 26 17.618   +11 41 54.23  .54580 1.4849 142.8 21.5 .437  91
2026 08 15 11  23 26 17.927   +11 42 13.13  .54568 1.4849 142.9 21.5 .443  91
2026 08 15 12  23 26 18.233   +11 42 31.98  .54556 1.4849 142.9 21.5 .448  91
2026 08 15 13  23 26 18.535   +11 42 50.78  .54544 1.4849 142.9 21.5 .454  91
2026 08 15 14  23 26 18.833   +11 43 09.54  .54532 1.4849 143.0 21.5 .460  91
2026 08 15 15  23 26 19.128   +11 43 28.26  .54520 1.4849 143.0 21.5 .467  91
2026 08 15 16  23 26 19.419   +11 43 46.92  .54508 1.4849 143.0 21.5 .473  91
2026 08 15 17  23 26 19.706   +11 44 05.55  .54496 1.4850 143.1 21.5 .479  91